Home   Weather   Stuttgart   Past weeks
Flag for Germany

Past Weather in Stuttgart, Baden-Württemberg, Germany — Yesterday and Last 2 Weeks

Now
45 °F

Partly sunny.


Feels Like: 45 °F
Forecast: 52 / 31 °F
Wind: 2 mph from North

Location: Stuttgart-Echterdingen

Current Time: Mar 19, 2019 at 11:45:16 am

Latest Report: Mar 19, 2019 at 10:50 am


Visibility: N/A

Pressure: 30.33 "Hg

Humidity: 66%

Dew Point: 34 °F

Location of StuttgartLocation

Past Weather in Stuttgart — Graph

°F

Stuttgart Temperature Yesterday

Maximum temperature yesterday: 48 °F (at 1:50 pm)
Minimum temperature yesterday: 34 °F (at 4:20 am)
Average temperature yesterday: 39 °F

High & Low Weather Summary for the Past Weeks

 TemperatureHumidityPressure
High63 °F (Mar 17, 11:20 am)100% (Mar 5, 10:50 pm)30.33 "Hg (Mar 5, 10:50 pm)
Low30 °F (Mar 12, 2:50 am)31% (Mar 17, 10:20 am)29.45 "Hg (Mar 7, 3:20 am)
Average44 °F70%29.90 "Hg
* Reported Mar 4 10:20 am — Mar 19 10:20 am, Stuttgart. Weather by CustomWeather, © 2019

Note: Actual official high and low records may vary slightly from our data, if they occured in-between our weather recording intervals... More about our weather records

Advertising

Stuttgart Weather History for the Previous 24 Hours

Scroll right to see more
 ConditionsComfort  
Time TempWeatherWind HumidityBarometerVisibility
10:20 am
Tue, Mar 19
43 °FScattered clouds.5 mph71%30.33 "HgN/A
9:50 am43 °FScattered clouds.5 mph71%30.33 "HgN/A
9:20 am43 °FPassing clouds.2 mph76%30.30 "HgN/A
8:50 am41 °FPassing clouds.5 mph70%30.30 "HgN/A
8:20 am39 °FScattered clouds.1 mph81%30.30 "HgN/A
7:50 am36 °FPartly sunny.2 mph87%30.30 "HgN/A
7:20 am34 °FPartly sunny.1 mph93%30.27 "HgN/A
6:50 am32 °FPartly sunny.1 mph100%30.27 "HgN/A
6:20 am32 °FSnow flurries. Passing clouds.2 mph93%30.27 "HgN/A
5:50 am34 °FPassing clouds.3 mph87%30.24 "HgN/A
5:20 am32 °FPassing clouds.2 mph87%30.24 "HgN/A
4:50 am32 °FPassing clouds.1 mph93%30.24 "HgN/A
4:20 am32 °FPassing clouds.1 mph93%30.24 "HgN/A
3:50 am32 °FPassing clouds.2 mph93%30.24 "HgN/A
3:20 am32 °FPassing clouds.2 mph87%30.24 "HgN/A
2:50 am32 °FPassing clouds.3 mph87%30.21 "HgN/A
2:20 am32 °FPassing clouds.2 mph93%30.21 "HgN/A
1:50 am32 °FPassing clouds.2 mph93%30.21 "HgN/A
1:20 am32 °FPassing clouds.3 mph93%30.21 "HgN/A
12:50 am32 °FPassing clouds.No wind93%30.21 "HgN/A
12:20 am32 °FPassing clouds.2 mph93%30.21 "HgN/A
11:50 pm
Mon, Mar 18
34 °FPassing clouds.2 mph87%30.21 "HgN/A
11:20 pm34 °FClear.2 mph93%30.21 "Hg10 mi
10:50 pm34 °FClear.2 mph87%30.21 "Hg10 mi
10:20 pm36 °FPassing clouds.2 mph87%30.21 "HgN/A
9:50 pm36 °FPassing clouds.3 mph87%30.21 "HgN/A
9:20 pm37 °FPassing clouds.5 mph87%30.21 "HgN/A
8:50 pm37 °FPassing clouds.1 mph87%30.21 "HgN/A
8:20 pm37 °FPassing clouds.5 mph87%30.18 "HgN/A
7:50 pm37 °FPassing clouds.3 mph87%30.18 "HgN/A
7:20 pm37 °FSprinkles. Partly cloudy.3 mph81%30.15 "HgN/A
6:50 pm39 °FSprinkles. Partly cloudy.7 mph81%30.15 "HgN/A
6:20 pm41 °FScattered showers. Passing clouds.5 mph81%30.12 "HgN/A
5:50 pm41 °FPassing clouds.7 mph81%30.12 "HgN/A
5:20 pm43 °FPassing clouds.7 mph71%30.12 "HgN/A
4:50 pm43 °FPassing clouds.6 mph71%30.12 "HgN/A
4:20 pm39 °FSprinkles. Broken clouds.7 mph87%30.12 "HgN/A
3:50 pm43 °FSprinkles. Partly sunny.14 mph66%30.09 "HgN/A
3:20 pm45 °FSprinkles. Scattered clouds.12 mph57%30.09 "HgN/A
2:50 pm45 °FScattered showers. Scattered clouds.12 mph57%30.09 "HgN/A
2:20 pm45 °FScattered clouds.14 mph49%30.09 "HgN/A
1:50 pm48 °FScattered clouds.15 mph43%30.09 "HgN/A
1:20 pm46 °FScattered clouds.14 mph50%30.09 "HgN/A
12:50 pm45 °FScattered clouds.10 mph66%30.09 "HgN/A
12:20 pm43 °FScattered showers. Scattered clouds.9 mph71%30.09 "HgN/A
11:50 am41 °FRain showers. Scattered clouds.12 mph76%30.09 "HgN/A
11:20 am45 °FScattered clouds.15 mph61%30.09 "HgN/A
Weather by CustomWeather, © 2019

See weather overview